Weather in Petropavlovsk

Kazakhstan     54°51′55″N   69°08′08″E
temp.,
°C
wind,
m/s
gust,
m/s
humid.,
%
clouds,
%
prec.,
mm/h
press.,
hPa
HPBL,
m
17 may, mon
mon1700:00+21nw124676 0.0 101711
03:00+20ssw114975 0.0 101711
06:00+19wsw334833 0.0 101723
09:00+24w583976 0.0 1018332
12:00+30wnw69275 0.0 10171333
15:00+32wnw7102260 0.0 10163479
18:00+31wnw610235 0.0 10153232
21:00+25wnw333999 0.0 101416
18 may, tue
tue1800:00+21w48455 0.0 1014130
03:00+21nw613455 0.0 1014391
06:00+18w376121 0.1 1013121
09:00+23nw3550100 0.0 1013448
12:00+25wnw5742100 0.0 10121008
15:00+27w7103887 0.0 10112619
18:00+18ne137238 4.3 1010163
21:00+16n37771 1.2 1012196
19 may, wed
wed1900:00+14n410885 1.3 1013294
03:00+13n71085100 0.5 1015596
06:00+12nne71184100 0.6 1017865
09:00+13nne796546 0.1 10191269
12:00+16ne794728 0.1 10201805
15:00+18nne67385 0.0 10201918
18:00+18nne68385 0.0 10201909
21:00+14n495129 0.0 1021223
20 may, thu
thu2000:00+12n335430 0.0 102239
03:00+9ne3764100 0.0 1023117
06:00+8ne346694 0.0 102487
09:00+13ne23475 0.0 1025558
12:00+17nnw233986 0.0 10251216
15:00+19wnw343592 0.0 10231497
18:00+21wnw353237 0.0 10221771
21:00+18wsw334957 0.0 102224
21 may, fri
fri2100:00+15wsw46525 0.0 102283
03:00+13w47595 0.0 1021109
06:00+13w49655 0.0 1022144
09:00+19w69480 0.0 1021424
12:00+25w67330 0.0 10201342
15:00+27wnw67260 0.0 10192390
18:00+27nw57260 0.0 10182537
21:00+22wnw22450 0.0 101812